Tracking 28052 objects as of 23-Sep-2023
HD Live streaming from Space Station
objects crossing your sky now

COSMOS 1934 DEB

Track COSMOS 1934 DEB now!
10-day predictions


NORAD ID: 21912
Int'l Code: 1988-023C
Perigee: 929.1 km
Apogee: 984.6 km
Inclination: 83.0 °
Period: 104.0 minutes
Semi major axis: 7327 km
RCS: 0.1428 m2 (medium)
Launch date: March 22, 1988
Source: Commonwealth of Independent States (former USSR) (CIS)
Launch site: PLESETSK MISSILE AND SPACE COMPLEX (PKMTR)

Note: This is SATELLITE DEBRIS
Your satellite tracking list
Your tracking list is empty




NASA's NSSDC Master Catalog

Two Line Element Set (TLE):
1 21912U 88023C   23265.66174189  .00000603  00000-0  52555-3 0  9990
2 21912  82.9532 114.8218 0037871 166.8035 262.3371 13.84016503663792
Source of the keplerian elements: AFSPC